Flag for United Kingdom Weather past 2 weeks in Lichfield, England, United Kingdom

Now
52 °F

Passing clouds.


Feels Like: 48 °F
Forecast: 42 / 60 °F
Wind: 12 mph from Northwest

Location: Birmingham / Airport

Current Time: May 26, 2015 at 4:56:59 AM

Latest Report: May 26, 2015 at 4:20 AM


Visibility: N/A

Pressure: 30.18 "Hg

Humidity: 77%

Dew point: 45 °F

Location of LichfieldLocation

Historic Weather in Lichfield — Graph

°F

Lichfield temperature yesterday

Maximum temperature yesterday: 57 °F (at 11:50 AM)
Minimum temperature yesterday: 46 °F (at 12:50 AM)
Average temperature yesterday: 53 °F

Past Weeks' High & Low Weather Summary

 TemperatureHumidityPressure
High66 °F (May 11, 2:20 PM)100% (May 18, 8:20 AM)30.33 "Hg (May 18, 8:20 AM)
Low41 °F (May 13, 5:20 AM)29% (May 12, 3:50 PM)29.50 "Hg (May 19, 2:50 AM)
Average53 °F68%30.06 "Hg
* Reported May 11 3:20 AM — May 26 3:20 AM, Lichfield, Weather by CustomWeather, © 2015

Note: Actual official high and low records may vary slightly from our data, if they occured in-between our weather recording intervals... More about our weather records

Advertising

Lichfield weather history for previous 24 hours

 ConditionsComfort  
Time TempWeatherWind HumidityBarometerVisibility
3:20 AM
Tue, May 26
52 °FPassing clouds.8 mph77%30.15 "HgN/A
2:50 AM52 °FMostly cloudy.9 mph77%30.15 "HgN/A
2:20 AM52 °FMostly cloudy.10 mph77%30.15 "HgN/A
1:50 AM52 °FMostly cloudy.9 mph77%30.15 "HgN/A
1:20 AM52 °FPassing clouds.8 mph82%30.15 "HgN/A
12:50 AM52 °FPassing clouds.7 mph82%30.18 "HgN/A
12:20 AM52 °FPassing clouds.9 mph77%30.18 "HgN/A
11:50 PM
Mon, May 25
54 °FPassing clouds.8 mph72%30.15 "HgN/A
11:20 PM54 °FPassing clouds.9 mph72%30.15 "HgN/A
10:50 PM54 °FPassing clouds.8 mph72%30.15 "HgN/A
10:20 PM54 °FPassing clouds.9 mph67%30.15 "HgN/A
9:20 PM55 °FPartly sunny.8 mph63%30.15 "HgN/A
8:50 PM55 °FPartly sunny.12 mph63%30.12 "HgN/A
8:20 PM55 °FPartly sunny.12 mph63%30.12 "HgN/A
7:50 PM57 °FPartly sunny.14 mph59%30.12 "HgN/A
7:20 PM55 °FBroken clouds.9 mph67%30.12 "HgN/A
6:50 PM57 °FBroken clouds.10 mph63%30.12 "HgN/A
6:20 PM57 °FPartly sunny.10 mph63%30.12 "HgN/A
5:50 PM57 °FPartly sunny.9 mph63%30.09 "HgN/A
5:20 PM57 °FPartly sunny.13 mph63%30.09 "HgN/A
4:50 PM57 °FPartly sunny.14 mph63%30.09 "HgN/A
4:20 PM57 °FPartly sunny.12 mph63%30.09 "HgN/A
3:50 PM57 °FPartly sunny.10 mph63%30.09 "HgN/A
3:20 PM57 °FPartly sunny.10 mph59%30.09 "HgN/A
2:50 PM57 °FPartly sunny.10 mph59%30.09 "HgN/A
2:20 PM57 °FMostly cloudy.10 mph59%30.09 "HgN/A
1:50 PM57 °FMostly cloudy.8 mph55%30.09 "HgN/A
1:20 PM57 °FOvercast.10 mph55%30.09 "HgN/A
12:50 PM57 °FOvercast.8 mph55%30.09 "HgN/A
12:20 PM57 °FMostly cloudy.8 mph55%30.09 "HgN/A
11:50 AM57 °FPartly sunny.14 mph51%30.09 "HgN/A
11:20 AM55 °FPartly sunny.10 mph55%30.09 "HgN/A
10:50 AM55 °FPartly sunny.9 mph55%30.09 "HgN/A
10:20 AM54 °FPartly sunny.12 mph58%30.09 "HgN/A
9:50 AM54 °FBroken clouds.10 mph58%30.09 "HgN/A
9:20 AM54 °FPassing clouds.10 mph63%30.12 "HgN/A
8:50 AM52 °FPassing clouds.12 mph67%30.12 "HgN/A
8:20 AM52 °FPassing clouds.10 mph62%30.12 "HgN/A
7:50 AM50 °FPassing clouds.12 mph67%30.12 "HgN/A
7:20 AM50 °FScattered clouds.9 mph67%30.09 "HgN/A
6:50 AM50 °FPartly sunny.5 mph71%30.09 "HgN/A
6:20 AM48 °FPassing clouds.3 mph76%30.09 "HgN/A
5:50 AM48 °FPassing clouds.3 mph76%30.09 "HgN/A
5:20 AM48 °FPassing clouds.3 mph76%30.09 "HgN/A
4:50 AM48 °FPassing clouds.5 mph76%30.09 "HgN/A
4:20 AM48 °FPassing clouds.6 mph76%30.09 "HgN/A
Weather by CustomWeather, © 2015

See weather overviewHow to use our weather pages